This demonstration page uses our WeatherBlox Daily Observations layout. Learn more.

Hourly Observations for July 24, 2018

Temp ( °F °C ) Dew Point ( °F °C ) Humidity (%) Winds ( mph kmh ) Pressure ( in mb ) Visibility ( mi km ) Precip ( " mm )
12:15 am 00:15 Clear 64 17.7 63 17.2 97 97 Calm 30.15 1021 10 16.0934 0 0
12:35 am 00:35 Clear 65 18.1 63 17.3 95 95 Calm 30.15 1021 10 16.0934 0 0
12:55 am 00:55 Clear 64 17.8 63 17.2 96 96 Calm 30.18 1022 10 16.0934 0 0
1:15 am 01:15 Clear 64 17.8 63 17.2 96 96 Calm 30.18 1022 10 16.0934 0 0
1:35 am 01:35 Clear 63 17.3 63 17 98 98 Calm 30.18 1022 10 16.0934 0 0
1:55 am 01:55 Clear 64 17.7 63 17.2 97 97 Calm 30.18 1022 10 16.0934 0 0
2:15 am 02:15 Clear 63 17.1 62 16.9 99 99 Calm 30.18 1022 10 16.0934 0 0
2:35 am 02:35 Clear 63 17.2 63 17 99 99 Calm 30.15 1021 10 16.0934 0 0
2:55 am 02:55 Clear 62 16.4 62 16.4 100 100 Calm 30.15 1021 10 16.0934 0 0
3:15 am 03:15 Clear 62 16.4 62 16.4 100 100 Calm 30.15 1021 10 16.0934 0 0
3:35 am 03:35 Clear 61 16.2 61 16.2 100 100 Calm 30.15 1021 7 11.26538 0 0
3:55 am 03:55 Clear with Mist and Fog 60 15.4 60 15.4 100 100 Calm 30.15 1021 5 8.0467 0 0
4:15 am 04:15 Clear 60 15.3 60 15.3 100 100 Calm 30.18 1022 10 16.0934 0 0
4:35 am 04:35 Clear 59 15.1 59 15.1 100 100 Calm 30.18 1022 7 11.26538 0 0
4:55 am 04:55 Clear 60 15.4 60 15.4 100 100 Calm 30.18 1022 7 11.26538 0 0
5:15 am 05:15 Clear 61 16 60 15.7 98 98 Calm 30.18 1022 10 16.0934 0 0
5:35 am 05:35 Clear 60 15.7 60 15.5 99 99 Calm 30.18 1022 10 16.0934 0 0
5:55 am 05:55 Clear 61 16.1 61 16 99 99 E 5 7 30.18 1022 10 16.0934 0 0
6:15 am 06:15 Clear 61 16.3 61 16 98 98 E 3 6 30.18 1022 10 16.0934 0 0
6:35 am 06:35 Sunny 60 15.8 60 15.3 97 97 Calm 30.18 1022 10 16.0934 0 0
6:55 am 06:55 Sunny 61 16.1 60 15.6 97 97 Calm 30.18 1022 10 16.0934 0 0
7:15 am 07:15 Sunny 61 16.1 60 15.7 97 97 Calm 30.18 1022 10 16.0934 0 0
7:35 am 07:35 Sunny 64 17.7 62 16.8 95 95 Calm 30.18 1022 10 16.0934 0 0
7:55 am 07:55 Sunny 65 18.5 62 16.7 89 89 Calm 30.15 1021 10 16.0934 0 0
8:15 am 08:15 Sunny 66 19.1 62 16.7 86 86 Calm 30.15 1021 10 16.0934 0 0
8:35 am 08:35 Sunny 68 20.1 62 16.8 81 81 S 3 6 30.15 1021 10 16.0934 0 0
8:55 am 08:55 Sunny 68 20.1 61 15.9 77 77 SE 3 6 30.15 1021 10 16.0934 0 0
9:15 am 09:15 Sunny 69 20.5 62 16.7 79 79 Calm 30.18 1022 10 16.0934 0 0
9:35 am 09:35 Sunny 70 21.3 62 16.5 74 74 Calm 30.18 1022 10 16.0934 0 0
9:55 am 09:55 Sunny 71 21.8 62 16.8 73 73 SSE 3 6 30.18 1022 10 16.0934 0 0
10:15 am 10:15 Sunny 74 23.1 62 16.5 67 67 SE 5 7 30.15 1021 10 16.0934 0 0
10:35 am 10:35 Sunny 74 23.5 62 16.4 65 65 SSE 3 6 30.15 1021 10 16.0934 0 0
10:55 am 10:55 Sunny 75 23.9 63 17 65 65 SSE 5 7 30.12 1020 10 16.0934 0 0
11:15 am 11:15 Sunny 76 24.4 63 17.2 64 64 SE 5 7 30.12 1020 10 16.0934 0 0
11:35 am 11:35 Sunny 77 25.2 60 15.4 55 55 ESE 9 15 30.12 1020 10 16.0934 0 0
11:55 am 11:55 Sunny 78 25.5 60 15.5 54 54 SSE 6 9 30.09 1019 10 16.0934 0 0
12:15 pm 12:15 Sunny 78 25.8 59 14.8 51 51 ESE 8 13 30.09 1019 10 16.0934 0 0
12:35 pm 12:35 Sunny 79 26 58 14.5 49 49 ESE 5 7 30.09 1019 10 16.0934 0 0
12:55 pm 12:55 Partly Cloudy 79 26 59 15 51 51 E 5 7 30.09 1019 10 16.0934 0 0
1:15 pm 13:15 Sunny 80 26.5 60 15.5 51 51 ESE 8 13 30.09 1019 10 16.0934 0 0
1:35 pm 13:35 Partly Cloudy 80 26.4 59 14.9 49 49 E 9 15 30.09 1019 10 16.0934 0 0
1:55 pm 13:55 Partly Cloudy 80 26.9 59 14.8 48 48 ESE 9 15 30.06 1018 10 16.0934 0 0
2:15 pm 14:15 Mostly Cloudy 80 26.5 60 15.4 51 51 SE 6 9 30.06 1018 10 16.0934 0 0
2:35 pm 14:35 Mostly Cloudy 80 26.8 61 16.1 52 52 SE 8 13 30.06 1018 10 16.0934 0 0
2:55 pm 14:55 Mostly Cloudy 81 27.2 60 15.8 50 50 SE 7 11 30.06 1018 10 16.0934 0 0
3:15 pm 15:15 Mostly Cloudy 81 27.4 57 13.9 44 44 SE 5 7 30.06 1018 10 16.0934 0 0
3:35 pm 15:35 Partly Cloudy 82 27.5 56 13.1 41 41 SSE 5 7 30.06 1018 10 16.0934 0 0
3:55 pm 15:55 Partly Cloudy 82 28 60 15.6 47 47 ESE 7 11 30.06 1018 10 16.0934 0 0
4:15 pm 16:15 Partly Cloudy 82 27.9 58 14.3 43 43 ESE 3 6 30.06 1018 10 16.0934 0 0
4:35 pm 16:35 Mostly Cloudy 82 27.9 59 15.1 46 46 SE 6 9 30.06 1018 10 16.0934 0 0
4:55 pm 16:55 Mostly Cloudy 82 28 60 15.4 46 46 ESE 5 7 30.06 1018 10 16.0934 0 0
5:15 pm 17:15 Mostly Cloudy 82 27.5 60 15.5 48 48 SE 7 11 30.03 1017 10 16.0934 0 0
5:35 pm 17:35 Partly Cloudy 82 27.8 60 15.5 47 47 SE 6 9 30.03 1017 10 16.0934 0 0
5:55 pm 17:55 Sunny 82 27.6 60 15.8 49 49 ESE 8 13 30.03 1017 10 16.0934 0 0
6:15 pm 18:15 Partly Cloudy 82 27.8 60 15.7 48 48 SE 8 13 30.03 1017 10 16.0934 0 0
6:35 pm 18:35 Sunny 82 27.6 62 16.8 52 52 ESE 8 13 30.03 1017 10 16.0934 0 0
6:55 pm 18:55 Sunny 82 27.5 61 16 50 50 ESE 7 11 30 1016 10 16.0934 0 0
7:15 pm 19:15 Sunny 81 27.4 62 16.5 51 51 ESE 7 11 30 1016 10 16.0934 0 0
7:35 pm 19:35 Sunny 79 26.3 65 18.2 61 61 ESE 8 13 30 1016 10 16.0934 0 0
7:55 pm 19:55 Sunny 78 25.3 66 18.7 67 67 ESE 6 9 30 1016 10 16.0934 0 0
8:15 pm 20:15 Sunny 76 24.5 66 19 72 72 ESE 7 11 30.06 1018 10 16.0934 0 0
8:35 pm 20:35 Sunny 74 23.1 66 19 78 78 ESE 6 9 30.06 1018 10 16.0934 0 0
8:55 pm 20:55 Sunny 72 22 66 19.1 84 84 ESE 7 11 30.06 1018 10 16.0934 0 0
9:15 pm 21:15 Clear 70 21.2 66 19.1 88 88 ESE 7 11 30.06 1018 10 16.0934 0 0
9:35 pm 21:35 Clear 71 21.5 66 19 86 86 SE 8 13 30.03 1017 10 16.0934 0 0
9:55 pm 21:55 Clear 69 20.8 66 18.9 89 89 SE 7 11 30.03 1017 10 16.0934 0 0
10:15 pm 22:15 Clear 69 20.6 66 18.8 89 89 SE 8 13 30.06 1018 10 16.0934 0 0
10:35 pm 22:35 Clear 68 20.1 65 18.6 91 91 ESE 7 11 30.09 1019 10 16.0934 0 0
10:55 pm 22:55 Clear 67 19.3 65 18.3 94 94 ESE 7 11 30.09 1019 10 16.0934 0 0
11:15 pm 23:15 Clear 67 19.5 65 18.1 92 92 SE 7 11 30.09 1019 10 16.0934 0 0
11:35 pm 23:35 Clear 67 19.3 64 18 92 92 SE 5 7 30.09 1019 10 16.0934 0 0
11:55 pm 23:55 Clear 67 19.5 63 17.4 88 88 SSE 5 7 30.09 1019 10 16.0934 0 0

Powered by AerisWeather